QPF
0.04 0.03 0.02 0.04 0.04 0.04 0.04 0.02 0.02 0.02 0.02 0.01 0.01 0.01 0.01 0.01 0.01 0.01 0.03 0.05 0.03 0.03 0.04 0.04 0.05 0.05 0.05 0.05 0.04 0.03 0.03 0.04 0.02 0.02 0.02 0.02 0.02 0.02 0.02 0.02 0.02 0.02 0.02
0.06 0.03 0.02 0.03 0.05 0.05 0.03 0.03 0.02 0.02 0.03 0.02 0.01 0.01 0.00 0.01 0.03 0.02 0.02 0.04 0.05 0.03 0.03 0.04 0.04 0.05 0.06 0.07 0.06 0.04 0.04 0.04 0.03 0.02 0.02 0.02 0.02 0.02 0.02 0.02 0.02 0.02 0.02
0.11 0.07 0.04 0.03 0.03 0.03 0.02 0.02 0.02 0.02 0.03 0.03 0.02 0.02 0.01 0.00 0.02 0.03 0.02 0.03 0.04 0.04 0.04 0.04 0.04 0.05 0.07 0.07 0.07 0.06 0.05 0.04 0.03 0.03 0.02 0.02 0.01 0.02 0.02 0.02 0.02 0.01 0.01
0.15 0.18 0.11 0.07 0.04 0.03 0.02 0.02 0.01 0.02 0.02 0.02 0.02 0.02 0.01 0.01 0.01 0.01 0.01 0.02 0.03 0.04 0.06 0.06 0.05 0.04 0.06 0.07 0.07 0.07 0.06 0.04 0.03 0.03 0.03 0.02 0.02 0.02 0.02 0.02 0.02 0.02 0.01
0.08 0.18 0.22 0.18 0.10 0.06 0.04 0.02 0.02 0.01 0.01 0.01 0.02 0.02 0.01 0.01 0.02 0.01 0.01 0.02 0.02 0.03 0.04 0.06 0.05 0.04 0.05 0.06 0.08 0.08 0.07 0.05 0.04 0.04 0.04 0.03 0.02 0.02 0.02 0.02 0.02 0.03 0.02
0.06 0.08 0.15 0.17 0.13 0.08 0.06 0.05 0.04 0.02 0.02 0.01 0.01 0.01 0.01 0.01 0.01 0.01 0.01 0.02 0.02 0.03 0.04 0.04 0.05 0.05 0.05 0.05 0.07 0.11 0.10 0.07 0.06 0.06 0.06 0.04 0.03 0.02 0.02 0.03 0.03 0.03 0.03
0.06 0.05 0.09 0.11 0.09 0.08 0.09 0.09 0.06 0.04 0.03 0.03 0.02 0.01 0.01 0.01 0.01 0.01 0.01 0.01 0.02 0.02 0.03 0.04 0.05 0.06 0.06 0.07 0.06 0.08 0.10 0.11 0.10 0.08 0.08 0.07 0.05 0.04 0.03 0.04 0.03 0.03 0.03
0.08 0.07 0.07 0.09 0.08 0.05 0.06 0.08 0.09 0.06 0.05 0.03 0.02 0.02 0.01 0.01 0.01 0.01 0.01 0.01 0.02 0.02 0.03 0.04 0.04 0.07 0.06 0.07 0.08 0.08 0.08 0.09 0.11 0.11 0.10 0.10 0.08 0.06 0.05 0.05 0.05 0.04 0.04
0.06 0.08 0.09 0.07 0.06 0.05 0.04 0.05 0.07 0.07 0.06 0.05 0.03 0.02 0.02 0.01 0.01 0.01 0.01 0.01 0.01 0.02 0.02 0.03 0.04 0.06 0.07 0.06 0.09 0.09 0.08 0.07 0.10 0.11 0.11 0.11 0.10 0.06 0.04 0.06 0.06 0.05 0.05
0.07 0.07 0.09 0.08 0.06 0.05 0.03 0.03 0.05 0.07 0.08 0.07 0.05 0.03 0.02 0.01 0.02 0.01 0.01 0.01 0.01 0.01 0.02 0.03 0.03 0.04 0.08 0.07 0.08 0.10 0.08 0.06 0.07 0.09 0.09 0.11 0.11 0.09 0.06 0.05 0.06 0.04 0.04
0.09 0.08 0.09 0.10 0.06 0.04 0.03 0.02 0.02 0.04 0.06 0.08 0.07 0.06 0.04 0.02 0.02 0.02 0.01 0.01 0.01 0.01 0.01 0.01 0.03 0.03 0.06 0.08 0.07 0.10 0.10 0.07 0.06 0.07 0.08 0.09 0.10 0.09 0.07 0.05 0.05 0.03 0.03
0.08 0.10 0.10 0.11 0.08 0.04 0.03 0.02 0.02 0.02 0.03 0.05 0.07 0.08 0.07 0.05 0.03 0.02 0.02 0.01 0.01 0.01 0.01 0.01 0.02 0.03 0.04 0.09 0.08 0.11 0.10 0.07 0.05 0.05 0.07 0.08 0.09 0.09 0.07 0.05 0.04 0.04 0.03
0.08 0.09 0.12 0.12 0.10 0.06 0.03 0.02 0.02 0.03 0.03 0.04 0.05 0.07 0.07 0.08 0.06 0.04 0.03 0.02 0.01 0.02 0.02 0.01 0.01 0.03 0.03 0.09 0.10 0.09 0.09 0.06 0.05 0.03 0.03 0.06 0.07 0.08 0.07 0.06 0.04 0.03 0.03
0.09 0.09 0.10 0.12 0.12 0.09 0.05 0.03 0.02 0.02 0.03 0.03 0.04 0.05 0.05 0.06 0.06 0.05 0.04 0.03 0.03 0.02 0.03 0.02 0.02 0.03 0.04 0.06 0.10 0.09 0.08 0.07 0.05 0.04 0.03 0.04 0.06 0.07 0.06 0.05 0.05 0.04 0.03
0.08 0.09 0.09 0.10 0.11 0.11 0.07 0.05 0.04 0.03 0.03 0.04 0.03 0.03 0.03 0.04 0.04 0.04 0.03 0.03 0.03 0.03 0.04 0.04 0.03 0.03 0.04 0.05 0.09 0.09 0.07 0.07 0.06 0.05 0.03 0.02 0.05 0.07 0.07 0.06 0.05 0.04 0.03
0.08 0.08 0.09 0.09 0.09 0.10 0.08 0.06 0.04 0.04 0.04 0.04 0.04 0.04 0.03 0.03 0.03 0.03 0.03 0.04 0.04 0.04 0.05 0.05 0.04 0.03 0.04 0.05 0.08 0.08 0.07 0.06 0.05 0.05 0.04 0.03 0.03 0.05 0.06 0.06 0.05 0.04 0.03
0.07 0.08 0.08 0.09 0.08 0.09 0.09 0.07 0.06 0.04 0.04 0.05 0.05 0.05 0.04 0.04 0.04 0.04 0.04 0.05 0.05 0.05 0.05 0.06 0.04 0.03 0.04 0.06 0.08 0.07 0.06 0.05 0.05 0.05 0.04 0.04 0.03 0.03 0.04 0.05 0.06 0.05 0.04
0.03 0.05 0.07 0.09 0.09 0.09 0.09 0.08 0.07 0.06 0.05 0.04 0.04 0.05 0.05 0.05 0.06 0.05 0.05 0.06 0.07 0.06 0.06 0.06 0.06 0.04 0.04 0.06 0.08 0.07 0.05 0.04 0.05 0.06 0.05 0.05 0.04 0.03 0.03 0.04 0.04 0.05 0.04
0.02 0.03 0.05 0.06 0.08 0.08 0.08 0.08 0.06 0.06 0.06 0.05 0.04 0.04 0.04 0.04 0.06 0.06 0.06 0.06 0.07 0.06 0.05 0.06 0.07 0.05 0.04 0.06 0.09 0.07 0.05 0.04 0.04 0.05 0.05 0.05 0.04 0.03 0.03 0.03 0.03 0.04 0.04
0.02 0.02 0.02 0.03 0.04 0.05 0.06 0.06 0.06 0.05 0.05 0.06 0.05 0.05 0.05 0.05 0.05 0.05 0.06 0.07 0.08 0.08 0.06 0.05 0.07 0.05 0.04 0.05 0.08 0.08 0.06 0.04 0.04 0.04 0.04 0.04 0.04 0.04 0.03 0.03 0.02 0.03 0.04
0.01 0.02 0.02 0.02 0.02 0.04 0.05 0.05 0.05 0.04 0.04 0.05 0.05 0.05 0.06 0.06 0.05 0.05 0.06 0.06 0.07 0.08 0.07 0.06 0.07 0.06 0.04 0.04 0.06 0.06 0.06 0.06 0.05 0.04 0.05 0.04 0.04 0.04 0.04 0.03 0.03 0.03 0.03
0.01 0.02 0.02 0.02 0.03 0.04 0.05 0.05 0.05 0.05 0.04 0.04 0.05 0.05 0.06 0.06 0.06 0.05 0.06 0.06 0.06 0.08 0.08 0.06 0.07 0.06 0.04 0.03 0.03 0.04 0.04 0.05 0.06 0.05 0.05 0.05 0.04 0.04 0.04 0.04 0.04 0.03 0.03
0.02 0.02 0.02 0.02 0.03 0.05 0.05 0.04 0.05 0.05 0.04 0.04 0.04 0.04 0.04 0.05 0.05 0.05 0.05 0.06 0.07 0.08 0.07 0.05 0.05 0.05 0.04 0.03 0.03 0.03 0.03 0.03 0.04 0.04 0.04 0.05 0.05 0.05 0.04 0.04 0.04 0.04 0.03
0.03 0.02 0.02 0.02 0.02 0.03 0.05 0.05 0.04 0.04 0.04 0.03 0.03 0.04 0.04 0.04 0.04 0.04 0.05 0.06 0.06 0.07 0.07 0.06 0.04 0.04 0.03 0.02 0.02 0.02 0.03 0.03 0.03 0.03 0.03 0.04 0.04 0.04 0.04 0.04 0.04 0.03 0.03
0.03 0.02 0.02 0.02 0.02 0.03 0.04 0.05 0.05 0.04 0.04 0.03 0.03 0.03 0.03 0.04 0.04 0.05 0.05 0.05 0.05 0.06 0.07 0.08 0.07 0.05 0.04 0.03 0.02 0.02 0.02 0.03 0.03 0.02 0.02 0.03 0.03 0.03 0.03 0.02 0.03 0.03 0.03
0.02 0.02 0.02 0.02 0.02 0.02 0.04 0.05 0.05 0.04 0.03 0.03 0.03 0.02 0.03 0.04 0.04 0.04 0.04 0.04 0.04 0.05 0.06 0.07 0.07 0.06 0.05 0.05 0.04 0.02 0.02 0.03 0.03 0.03 0.03 0.03 0.03 0.03 0.03 0.02 0.02 0.02 0.03
MSLP
1021.61 1021.84 1022.01 1022.16 1022.31 1022.47 1022.64 1022.82 1022.99 1023.12 1023.21 1023.26 1023.28 1023.29 1023.32 1023.36 1023.44 1023.53 1023.62 1023.69 1023.73 1023.74 1023.74 1023.74 1023.76 1023.83 1023.96 1024.12 1024.30 1024.46 1024.57 1024.61 1024.57 1024.46 1024.31 1024.17 1024.06 1024.02 1024.05 1024.15 1024.30 1024.46 1024.61
1021.44 1021.65 1021.83 1022.00 1022.21 1022.45 1022.72 1022.99 1023.24 1023.44 1023.58 1023.65 1023.67 1023.67 1023.67 1023.69 1023.73 1023.80 1023.86 1023.92 1023.95 1023.95 1023.93 1023.92 1023.93 1024.00 1024.13 1024.30 1024.49 1024.68 1024.82 1024.89 1024.88 1024.80 1024.67 1024.52 1024.41 1024.34 1024.35 1024.43 1024.56 1024.71 1024.88
1021.29 1021.46 1021.62 1021.82 1022.07 1022.39 1022.75 1023.12 1023.47 1023.75 1023.95 1024.06 1024.10 1024.09 1024.07 1024.05 1024.06 1024.08 1024.12 1024.14 1024.15 1024.12 1024.08 1024.05 1024.05 1024.10 1024.22 1024.39 1024.60 1024.82 1025.00 1025.11 1025.15 1025.11 1025.01 1024.88 1024.77 1024.69 1024.68 1024.74 1024.85 1025.00 1025.16
1021.26 1021.37 1021.50 1021.69 1021.97 1022.34 1022.77 1023.22 1023.65 1024.02 1024.28 1024.44 1024.50 1024.49 1024.45 1024.41 1024.38 1024.37 1024.37 1024.36 1024.34 1024.28 1024.22 1024.16 1024.14 1024.17 1024.27 1024.43 1024.65 1024.89 1025.10 1025.27 1025.36 1025.37 1025.32 1025.22 1025.13 1025.05 1025.03 1025.06 1025.16 1025.30 1025.46
1021.42 1021.45 1021.53 1021.68 1021.95 1022.32 1022.79 1023.28 1023.77 1024.19 1024.50 1024.69 1024.78 1024.79 1024.75 1024.69 1024.64 1024.61 1024.59 1024.56 1024.51 1024.44 1024.36 1024.27 1024.22 1024.22 1024.30 1024.45 1024.66 1024.90 1025.14 1025.35 1025.49 1025.56 1025.56 1025.51 1025.44 1025.38 1025.35 1025.37 1025.45 1025.57 1025.73
1021.81 1021.75 1021.74 1021.83 1022.03 1022.37 1022.80 1023.29 1023.77 1024.21 1024.54 1024.76 1024.87 1024.90 1024.87 1024.83 1024.78 1024.75 1024.73 1024.70 1024.66 1024.58 1024.49 1024.39 1024.32 1024.29 1024.33 1024.44 1024.63 1024.86 1025.11 1025.35 1025.53 1025.64 1025.69 1025.69 1025.65 1025.61 1025.59 1025.60 1025.67 1025.77 1025.91
1022.42 1022.26 1022.15 1022.13 1022.23 1022.47 1022.81 1023.23 1023.67 1024.07 1024.40 1024.62 1024.75 1024.80 1024.80 1024.78 1024.76 1024.75 1024.76 1024.75 1024.73 1024.68 1024.60 1024.50 1024.41 1024.35 1024.35 1024.42 1024.57 1024.77 1025.00 1025.23 1025.44 1025.59 1025.68 1025.71 1025.71 1025.69 1025.68 1025.69 1025.75 1025.84 1025.97
1023.20 1022.94 1022.71 1022.56 1022.53 1022.62 1022.84 1023.14 1023.48 1023.81 1024.09 1024.30 1024.43 1024.50 1024.53 1024.54 1024.57 1024.60 1024.65 1024.69 1024.71 1024.70 1024.64 1024.56 1024.46 1024.38 1024.34 1024.37 1024.46 1024.61 1024.80 1025.01 1025.21 1025.37 1025.48 1025.55 1025.57 1025.58 1025.58 1025.60 1025.65 1025.74 1025.87
1024.11 1023.75 1023.41 1023.12 1022.93 1022.86 1022.91 1023.05 1023.26 1023.49 1023.70 1023.87 1023.99 1024.07 1024.12 1024.16 1024.23 1024.31 1024.40 1024.49 1024.56 1024.59 1024.57 1024.51 1024.43 1024.33 1024.27 1024.24 1024.28 1024.37 1024.51 1024.67 1024.84 1024.99 1025.11 1025.19 1025.24 1025.27 1025.29 1025.32 1025.37 1025.46 1025.59
1025.07 1024.64 1024.19 1023.78 1023.44 1023.20 1023.07 1023.05 1023.11 1023.22 1023.34 1023.45 1023.54 1023.60 1023.66 1023.72 1023.80 1023.90 1024.02 1024.14 1024.24 1024.31 1024.34 1024.31 1024.24 1024.16 1024.07 1024.01 1024.00 1024.03 1024.11 1024.23 1024.36 1024.49 1024.61 1024.69 1024.75 1024.80 1024.83 1024.87 1024.94 1025.03 1025.17
1026.05 1025.57 1025.04 1024.52 1024.05 1023.66 1023.37 1023.19 1023.11 1023.09 1023.12 1023.16 1023.19 1023.22 1023.25 1023.29 1023.35 1023.43 1023.54 1023.66 1023.77 1023.86 1023.91 1023.92 1023.88 1023.81 1023.72 1023.65 1023.60 1023.59 1023.63 1023.70 1023.80 1023.91 1024.01 1024.10 1024.17 1024.22 1024.27 1024.33 1024.40 1024.51 1024.65
1027.03 1026.51 1025.94 1025.34 1024.76 1024.25 1023.83 1023.52 1023.31 1023.18 1023.11 1023.07 1023.04 1023.00 1022.97 1022.94 1022.93 1022.95 1023.00 1023.07 1023.16 1023.24 1023.30 1023.32 1023.31 1023.27 1023.20 1023.13 1023.08 1023.05 1023.07 1023.11 1023.19 1023.28 1023.37 1023.46 1023.54 1023.60 1023.66 1023.73 1023.81 1023.93 1024.07
1028.00 1027.47 1026.86 1026.21 1025.57 1024.96 1024.45 1024.03 1023.72 1023.50 1023.34 1023.22 1023.11 1022.99 1022.86 1022.73 1022.60 1022.51 1022.45 1022.43 1022.45 1022.48 1022.52 1022.55 1022.56 1022.54 1022.51 1022.47 1022.43 1022.42 1022.43 1022.47 1022.54 1022.63 1022.72 1022.82 1022.90 1022.98 1023.05 1023.13 1023.22 1023.33 1023.48
1028.95 1028.42 1027.80 1027.12 1026.43 1025.77 1025.19 1024.71 1024.32 1024.03 1023.80 1023.60 1023.40 1023.18 1022.94 1022.67 1022.41 1022.16 1021.96 1021.81 1021.72 1021.67 1021.67 1021.67 1021.69 1021.70 1021.69 1021.69 1021.68 1021.69 1021.72 1021.78 1021.86 1021.96 1022.07 1022.18 1022.28 1022.37 1022.45 1022.53 1022.62 1022.73 1022.87
1029.87 1029.34 1028.72 1028.03 1027.31 1026.63 1026.01 1025.49 1025.06 1024.72 1024.43 1024.17 1023.88 1023.56 1023.20 1022.79 1022.37 1021.96 1021.59 1021.29 1021.06 1020.91 1020.83 1020.80 1020.79 1020.80 1020.82 1020.84 1020.87 1020.90 1020.96 1021.03 1021.14 1021.26 1021.39 1021.52 1021.64 1021.75 1021.84 1021.93 1022.02 1022.12 1022.24
1030.76 1030.23 1029.60 1028.91 1028.18 1027.49 1026.85 1026.31 1025.86 1025.49 1025.17 1024.85 1024.50 1024.10 1023.62 1023.08 1022.52 1021.95 1021.42 1020.96 1020.60 1020.32 1020.15 1020.04 1019.99 1019.98 1019.99 1020.01 1020.04 1020.09 1020.16 1020.25 1020.37 1020.51 1020.66 1020.81 1020.95 1021.08 1021.18 1021.28 1021.36 1021.45 1021.55
1031.60 1031.06 1030.43 1029.73 1029.01 1028.31 1027.68 1027.13 1026.68 1026.30 1025.96 1025.61 1025.21 1024.74 1024.19 1023.55 1022.87 1022.18 1021.51 1020.92 1020.42 1020.03 1019.74 1019.54 1019.42 1019.34 1019.30 1019.28 1019.29 1019.31 1019.36 1019.44 1019.56 1019.70 1019.86 1020.02 1020.18 1020.32 1020.44 1020.54 1020.63 1020.71 1020.79
1032.38 1031.83 1031.18 1030.48 1029.77 1029.08 1028.45 1027.92 1027.47 1027.09 1026.75 1026.39 1025.97 1025.47 1024.87 1024.18 1023.43 1022.65 1021.89 1021.20 1020.59 1020.08 1019.69 1019.38 1019.15 1018.98 1018.85 1018.75 1018.67 1018.62 1018.62 1018.65 1018.73 1018.84 1018.99 1019.15 1019.31 1019.46 1019.59 1019.70 1019.79 1019.86 1019.94
1033.08 1032.52 1031.87 1031.18 1030.47 1029.79 1029.18 1028.66 1028.23 1027.86 1027.51 1027.16 1026.74 1026.24 1025.63 1024.93 1024.16 1023.35 1022.54 1021.79 1021.10 1020.51 1020.01 1019.59 1019.24 1018.94 1018.68 1018.45 1018.25 1018.09 1017.98 1017.92 1017.93 1017.99 1018.09 1018.23 1018.38 1018.52 1018.66 1018.77 1018.86 1018.93 1019.00
1033.70 1033.14 1032.50 1031.82 1031.13 1030.47 1029.87 1029.36 1028.94 1028.58 1028.24 1027.90 1027.49 1027.01 1026.43 1025.75 1024.99 1024.20 1023.39 1022.62 1021.89 1021.24 1020.66 1020.13 1019.66 1019.22 1018.81 1018.43 1018.08 1017.77 1017.51 1017.33 1017.22 1017.19 1017.22 1017.30 1017.41 1017.54 1017.66 1017.77 1017.87 1017.94 1018.01
1034.26 1033.70 1033.08 1032.42 1031.75 1031.11 1030.53 1030.03 1029.60 1029.24 1028.91 1028.57 1028.18 1027.73 1027.18 1026.55 1025.84 1025.09 1024.32 1023.57 1022.84 1022.16 1021.51 1020.91 1020.33 1019.76 1019.21 1018.66 1018.15 1017.67 1017.26 1016.92 1016.67 1016.51 1016.44 1016.44 1016.49 1016.57 1016.67 1016.77 1016.85 1016.93 1016.99
1034.74 1034.21 1033.61 1032.97 1032.33 1031.70 1031.13 1030.63 1030.20 1029.82 1029.48 1029.13 1028.76 1028.32 1027.82 1027.24 1026.59 1025.91 1025.19 1024.48 1023.79 1023.11 1022.44 1021.78 1021.12 1020.46 1019.78 1019.10 1018.43 1017.80 1017.22 1016.72 1016.32 1016.02 1015.82 1015.71 1015.67 1015.68 1015.73 1015.79 1015.86 1015.93 1015.99
1035.16 1034.65 1034.08 1033.47 1032.85 1032.23 1031.66 1031.15 1030.69 1030.28 1029.91 1029.55 1029.16 1028.74 1028.26 1027.72 1027.14 1026.52 1025.88 1025.23 1024.58 1023.93 1023.28 1022.61 1021.92 1021.19 1020.44 1019.67 1018.88 1018.12 1017.41 1016.76 1016.20 1015.75 1015.40 1015.16 1015.00 1014.92 1014.89 1014.90 1014.94 1014.98 1015.03
1035.50 1035.02 1034.48 1033.89 1033.27 1032.66 1032.08 1031.54 1031.04 1030.59 1030.18 1029.77 1029.36 1028.93 1028.47 1027.96 1027.43 1026.86 1026.29 1025.70 1025.11 1024.52 1023.91 1023.27 1022.59 1021.87 1021.09 1020.28 1019.44 1018.59 1017.77 1017.00 1016.31 1015.71 1015.21 1014.81 1014.52 1014.31 1014.18 1014.11 1014.09 1014.11 1014.14
1035.76 1035.29 1034.77 1034.19 1033.57 1032.95 1032.34 1031.76 1031.22 1030.72 1030.26 1029.81 1029.37 1028.91 1028.44 1027.96 1027.45 1026.93 1026.41 1025.89 1025.36 1024.83 1024.29 1023.71 1023.09 1022.41 1021.67 1020.87 1020.02 1019.15 1018.27 1017.41 1016.60 1015.86 1015.21 1014.66 1014.21 1013.87 1013.61 1013.45 1013.35 1013.32 1013.32
1035.91 1035.45 1034.92 1034.33 1033.71 1033.07 1032.43 1031.82 1031.24 1030.69 1030.18 1029.69 1029.22 1028.74 1028.26 1027.78 1027.29 1026.80 1026.31 1025.84 1025.38 1024.91 1024.44 1023.95 1023.41 1022.81 1022.14 1021.40 1020.59 1019.73 1018.83 1017.92 1017.03 1016.17 1015.38 1014.68 1014.07 1013.57 1013.18 1012.90 1012.72 1012.62 1012.60
Thickness
5603 5602 5602 5602 5602 5602 5602 5602 5603 5604 5605 5606 5607 5607 5608 5609 5610 5611 5613 5615 5618 5621 5623 5625 5627 5628 5629 5630 5630 5630 5630 5630 5630 5631 5631 5631 5631 5631 5632 5633 5633 5633 5633
5594 5593 5592 5592 5592 5592 5592 5593 5593 5594 5594 5595 5595 5596 5597 5598 5599 5600 5602 5604 5606 5609 5612 5615 5617 5619 5619 5621 5621 5621 5622 5622 5622 5623 5623 5623 5623 5624 5624 5625 5626 5626 5626
5584 5584 5583 5582 5582 5582 5583 5583 5582 5582 5583 5583 5584 5584 5585 5586 5587 5589 5591 5593 5595 5598 5601 5604 5606 5608 5610 5611 5612 5613 5613 5614 5614 5614 5615 5615 5615 5616 5617 5617 5618 5618 5619
5574 5574 5573 5572 5572 5573 5573 5572 5571 5571 5571 5571 5571 5572 5573 5574 5575 5576 5578 5581 5583 5586 5589 5592 5595 5597 5599 5600 5602 5604 5605 5605 5606 5606 5606 5607 5607 5608 5609 5609 5610 5610 5611
5563 5563 5563 5562 5562 5562 5562 5561 5560 5560 5559 5559 5560 5560 5561 5562 5563 5564 5566 5568 5571 5573 5576 5579 5582 5585 5587 5589 5592 5594 5595 5596 5597 5597 5598 5598 5599 5600 5600 5601 5602 5602 5602
5552 5553 5552 5551 5551 5551 5550 5550 5549 5548 5548 5548 5548 5547 5548 5549 5550 5551 5553 5555 5557 5560 5563 5566 5569 5572 5575 5578 5580 5583 5585 5587 5588 5588 5589 5590 5590 5591 5592 5593 5593 5594 5594
5540 5541 5540 5540 5540 5539 5539 5538 5538 5537 5535 5535 5534 5533 5534 5535 5536 5538 5540 5542 5544 5547 5550 5553 5556 5559 5562 5566 5569 5571 5574 5576 5578 5579 5579 5580 5581 5582 5583 5584 5584 5585 5585
5528 5528 5529 5529 5528 5528 5527 5527 5526 5525 5523 5523 5522 5520 5519 5520 5522 5525 5527 5529 5531 5534 5537 5540 5544 5547 5550 5553 5556 5560 5562 5564 5566 5569 5569 5570 5571 5572 5573 5574 5575 5576 5576
5515 5516 5516 5516 5516 5516 5515 5515 5515 5514 5512 5511 5510 5509 5508 5509 5508 5511 5512 5515 5518 5520 5524 5527 5531 5534 5537 5540 5544 5547 5550 5552 5554 5557 5558 5559 5561 5562 5563 5564 5564 5565 5565
5503 5504 5504 5504 5504 5504 5503 5502 5503 5502 5501 5499 5498 5497 5497 5498 5496 5498 5499 5501 5504 5507 5510 5514 5517 5521 5524 5527 5531 5534 5538 5540 5542 5544 5546 5548 5550 5551 5552 5553 5553 5554 5555
5491 5491 5491 5491 5491 5492 5491 5491 5490 5490 5489 5488 5487 5486 5485 5484 5485 5485 5487 5488 5490 5493 5497 5501 5505 5508 5511 5515 5518 5521 5524 5527 5530 5532 5534 5535 5537 5538 5539 5540 5542 5543 5544
5477 5477 5477 5478 5479 5479 5479 5479 5479 5478 5477 5476 5476 5475 5475 5474 5474 5473 5474 5475 5477 5480 5484 5489 5492 5496 5498 5501 5505 5509 5511 5514 5517 5519 5521 5522 5523 5524 5526 5527 5528 5529 5531
5464 5464 5464 5464 5465 5466 5466 5466 5466 5466 5465 5465 5464 5464 5464 5464 5463 5463 5463 5463 5464 5467 5471 5476 5480 5484 5486 5489 5492 5495 5497 5501 5503 5505 5508 5509 5510 5510 5512 5513 5515 5516 5518
5450 5451 5451 5452 5452 5452 5453 5453 5453 5453 5453 5452 5452 5452 5451 5451 5451 5452 5452 5451 5451 5454 5458 5464 5468 5471 5474 5476 5479 5482 5484 5486 5489 5491 5494 5496 5497 5498 5498 5499 5501 5502 5504
5435 5436 5437 5439 5439 5440 5440 5440 5440 5440 5440 5439 5439 5439 5439 5440 5440 5440 5441 5441 5441 5443 5448 5453 5456 5461 5462 5464 5466 5469 5472 5474 5477 5479 5481 5483 5485 5485 5487 5487 5488 5489 5490
5420 5421 5423 5424 5425 5426 5426 5426 5427 5427 5426 5426 5426 5426 5427 5427 5428 5429 5429 5430 5431 5434 5436 5442 5445 5448 5450 5452 5454 5456 5460 5462 5464 5467 5468 5471 5472 5474 5475 5475 5476 5476 5477
5405 5406 5408 5410 5411 5412 5413 5413 5413 5414 5414 5413 5413 5414 5415 5415 5416 5417 5418 5419 5420 5422 5424 5429 5431 5434 5437 5440 5443 5445 5448 5450 5453 5455 5456 5458 5460 5462 5463 5463 5464 5464 5465
5391 5392 5394 5396 5397 5398 5399 5400 5400 5401 5401 5401 5401 5402 5403 5403 5405 5405 5406 5407 5409 5410 5413 5416 5419 5421 5425 5427 5430 5433 5436 5438 5441 5444 5446 5447 5448 5450 5451 5452 5452 5453 5453
5376 5378 5379 5381 5382 5384 5385 5386 5387 5388 5389 5389 5390 5391 5392 5393 5394 5394 5394 5395 5397 5399 5401 5404 5407 5410 5412 5415 5418 5421 5423 5426 5429 5432 5434 5436 5438 5439 5439 5440 5441 5442 5443
5361 5362 5364 5365 5367 5369 5370 5372 5373 5375 5376 5377 5378 5379 5381 5382 5382 5383 5384 5385 5386 5387 5390 5393 5396 5398 5400 5403 5405 5408 5411 5414 5416 5420 5422 5424 5426 5427 5429 5430 5431 5432 5432
5346 5347 5349 5350 5351 5354 5356 5358 5360 5361 5362 5364 5365 5366 5368 5370 5371 5372 5374 5375 5375 5377 5379 5381 5385 5387 5389 5390 5393 5396 5399 5401 5405 5408 5409 5412 5414 5416 5417 5418 5418 5419 5420
5331 5332 5333 5335 5337 5339 5342 5345 5346 5348 5349 5351 5352 5354 5355 5357 5359 5361 5363 5365 5366 5367 5368 5370 5373 5376 5378 5379 5381 5383 5385 5387 5392 5396 5395 5399 5400 5403 5405 5406 5407 5407 5408
5316 5317 5319 5321 5323 5325 5328 5331 5333 5334 5336 5337 5339 5340 5342 5344 5346 5347 5350 5352 5354 5355 5357 5359 5361 5363 5366 5368 5368 5370 5371 5374 5378 5380 5381 5386 5388 5391 5393 5394 5394 5395 5395
5302 5303 5305 5306 5309 5311 5314 5317 5318 5320 5322 5324 5325 5327 5329 5330 5332 5334 5336 5338 5340 5342 5345 5347 5349 5352 5353 5354 5356 5358 5359 5361 5364 5366 5367 5372 5376 5378 5381 5382 5383 5383 5384
5288 5289 5291 5293 5295 5297 5299 5302 5304 5306 5308 5310 5311 5313 5315 5318 5320 5322 5324 5325 5327 5329 5331 5333 5336 5337 5339 5341 5342 5343 5344 5346 5350 5354 5354 5357 5362 5364 5367 5370 5371 5371 5371
5274 5275 5277 5279 5281 5283 5285 5287 5289 5291 5293 5295 5298 5299 5301 5304 5306 5309 5310 5311 5313 5315 5317 5319 5320 5322 5324 5326 5328 5328 5330 5331 5333 5338 5341 5341 5345 5345 5350 5356 5357 5357 5357